Pamplona/Noain, Spain

2:03 AM CET on February 20, 2017 (GMT +0100)
Pamplona

Weather History for LEPP - October, 2012

Change the Weather History Date:

Wednesday, October 31, 2012

  Actual Average Record
Temperature  
Mean Temperature 48 °F -  
Max Temperature 60 °F 52 °F 71 °F (2006)
Min Temperature 37 °F 40 °F 30 °F (1996)
Degree Days  
Heating Degree Days 16    
Moisture  
Dew Point 40 °F    
Average Humidity 71    
Maximum Humidity 100    
Minimum Humidity 45    
Precipitation  
Precipitation 0.00 in - - ()
Sea Level Pressure  
Sea Level Pressure 29.48 in    
Wind  
Wind Speed 3 mph ()    
Max Wind Speed 9 mph    
Max Gust Speed -    
Visibility 6.2 miles    
Events      
Averages and records for this station are not official NWS values.
T = Trace of Precipitation, MM = Missing Value Source: Averaged Metar Reports

Daily Weather History Graph

Daily Weather History Graph

Search for Another Location

Airport or City:

Trip Planner

Search our weather history database for the weather conditions in past years. The results will help you decide how hot, cold, wet, or windy it might be!

Date:

Astronomy

Oct. 31, 2012 Rise Set
Actual Time 7:39 AM CET 5:59 PM CET
Civil Twilight 7:10 AM CET 6:29 PM CET
Nautical Twilight 6:36 AM CET 7:02 PM CET
Astronomical Twilight 6:04 AM CET 7:35 PM CET
Moon 6:58 PM CET (10/31) 9:10 AM CET (10/31)
Length of Visible Light 11h 19m
Length of Day
10h 20m
Full, 98% of the Moon is Illuminated
Oct 31
Full
Nov 7
Last Quarter
Nov 13
New
Nov 20
First Quarter
Nov 28
Full

Hourly Weather History & Observations

Time (CET) Temp. Windchill Dew Point Humidity Pressure Visibility Wind Dir Wind Speed Gust Speed Precip Events Conditions
12:00 AM 46.4 °F - 42.8 °F 87% 29.56 in 6.2 mi NE 2.3 mph - N/A   Scattered Clouds
5:30 AM 42.8 °F - 41.0 °F 93% 29.47 in - Calm Calm - N/A   Clear
6:00 AM 41.0 °F - 39.2 °F 93% 29.47 in - Calm Calm - N/A   Clear
6:30 AM 41.0 °F - 39.2 °F 93% 29.47 in - Calm Calm - N/A   Clear
7:00 AM 39.2 °F - 39.2 °F 100% 29.50 in - Calm Calm - N/A   Clear
7:30 AM 39.2 °F - 39.2 °F 100% 29.50 in - Calm Calm - N/A   Clear
8:00 AM 37.4 °F - 37.4 °F 100% 29.50 in - Calm Calm - N/A   Clear
8:30 AM 41.0 °F - 41.0 °F 100% 29.50 in - SE 1.2 mph - N/A   Clear
9:00 AM 42.8 °F - 41.0 °F 93% 29.50 in - Variable 1.2 mph - N/A   Clear
9:30 AM 46.4 °F - 42.8 °F 87% 29.50 in - Calm Calm - N/A   Clear
10:00 AM 50.0 °F - 42.8 °F 76% 29.50 in - Calm Calm - N/A   Clear
10:30 AM 51.8 °F - 42.8 °F 71% 29.50 in - Variable 1.2 mph - N/A   Clear
11:00 AM 53.6 °F - 44.6 °F 72% 29.50 in 6.2 mi Variable 2.3 mph - N/A   Partly Cloudy
11:30 AM 55.4 °F - 42.8 °F 63% 29.50 in 6.2 mi NW 6.9 mph - N/A   Partly Cloudy
12:00 PM 55.4 °F - 42.8 °F 63% 29.50 in 6.2 mi NW 6.9 mph - N/A   Partly Cloudy
12:30 PM 57.2 °F - 42.8 °F 59% 29.47 in 6.2 mi NW 8.1 mph - N/A   Partly Cloudy
1:00 PM 59.0 °F - 41.0 °F 51% 29.47 in 6.2 mi WNW 8.1 mph - N/A   Partly Cloudy
1:30 PM 59.0 °F - 41.0 °F 51% 29.47 in 6.2 mi WNW 9.2 mph - N/A   Partly Cloudy
2:00 PM 59.0 °F - 41.0 °F 51% 29.47 in 6.2 mi NW 9.2 mph - N/A   Partly Cloudy
2:30 PM 59.0 °F - 39.2 °F 48% 29.47 in 6.2 mi North 8.1 mph - N/A   Partly Cloudy
3:00 PM 60.8 °F - 41.0 °F 48% 29.44 in 6.2 mi NNW 5.8 mph - N/A   Partly Cloudy
3:30 PM 59.0 °F - 37.4 °F 45% 29.44 in 6.2 mi NW 4.6 mph - N/A   Partly Cloudy
4:00 PM 59.0 °F - 39.2 °F 48% 29.44 in 6.2 mi NW 4.6 mph - N/A   Partly Cloudy
4:30 PM 59.0 °F - 39.2 °F 48% 29.44 in 6.2 mi NNW 3.5 mph - N/A   Partly Cloudy
5:00 PM 57.2 °F - 39.2 °F 51% 29.44 in 6.2 mi Variable 1.2 mph - N/A   Partly Cloudy
5:30 PM 55.4 °F - 39.2 °F 54% 29.44 in 6.2 mi Calm Calm - N/A   Partly Cloudy
6:00 PM 53.6 °F - 41.0 °F 62% 29.44 in 6.2 mi WSW 6.9 mph - N/A   Partly Cloudy
7:00 PM 51.8 °F - 41.0 °F 67% 29.44 in 6.2 mi Variable 1.2 mph - N/A   Partly Cloudy
7:30 PM 50.0 °F - 41.0 °F 71% 29.47 in 6.2 mi WNW 4.6 mph - N/A   Partly Cloudy
8:00 PM 50.0 °F - 39.2 °F 66% 29.47 in 6.2 mi SW 4.6 mph - N/A   Partly Cloudy
8:30 PM 48.2 °F - 39.2 °F 71% 29.47 in 6.2 mi South 9.2 mph - N/A   Partly Cloudy
9:00 PM 50.0 °F - 37.4 °F 62% 29.50 in 6.2 mi Variable 1.2 mph - N/A   Partly Cloudy
9:30 PM 48.2 °F - 39.2 °F 71% 29.50 in 6.2 mi South 3.5 mph - N/A   Partly Cloudy
10:00 PM 46.4 °F - 39.2 °F 76% 29.50 in 6.2 mi Variable 2.3 mph - N/A   Partly Cloudy
10:30 PM 46.4 °F 43.5 °F 39.2 °F 76% 29.47 in 6.2 mi South 5.8 mph - N/A   Partly Cloudy
11:00 PM 46.4 °F 43.5 °F 39.2 °F 76% 29.47 in 6.2 mi South 5.8 mph - N/A   Partly Cloudy
11:30 PM 46.4 °F 42.9 °F 39.2 °F 76% 29.47 in 6.2 mi South 6.9 mph - N/A   Partly Cloudy